Home > Weather > Sherbrooke > Past weeks

Flag for Canada Weather for the Past 2 Weeks in Sherbrooke, Quebec, Canada

Now
0 °F

Partly sunny.


Feels Like: -22 °F
Forecast: -11 / 10 °F
Wind: 20 mph from West

Location: Sherbrooke

Current Time: Feb 13, 2016 at 10:38:33 AM

Latest Report: Feb 13, 2016 at 10:00 AM


Visibility: 4 mi

Pressure: 29.93 "Hg

Humidity: 65%

Dew point: -9 °F

Location of SherbrookeLocation

Historic Weather in Sherbrooke — Graph

°F

Sherbrooke Temperature Yesterday

Maximum temperature yesterday: 16 °F (at 4:00 PM)
Minimum temperature yesterday: -9 °F (at 6:00 AM)
Average temperature yesterday: 3 °F

High & Low Weather Summary for the Past Weeks

 TemperatureHumidityPressure
High48 °F (Feb 1, 4:58 AM)100% (Jan 29, 3:56 PM)30.44 "Hg (Jan 29, 3:56 PM)
Low-9 °F (Feb 12, 6:00 AM)33% (Feb 7, 2:00 PM)29.41 "Hg (Jan 29, 1:49 PM)
Average23 °F80%29.89 "Hg
* Reported Jan 29 9:00 AM — Feb 13 9:02 AM, Sherbrooke, Weather by CustomWeather, © 2016

Note: Actual official high and low records may vary slightly from our data, if they occured in-between our weather recording intervals... More about our weather records

Advertising

Sherbrooke Weather History for the Previous 24 Hours

 ConditionsComfort  
Time TempWeatherWind HumidityBarometerVisibility
9:02 AM
Sat, Feb 13
3 °FLight snow. Overcast.17 mph78%29.89 "Hg1 mi
8:54 AM3 °FLight snow. Partly sunny.17 mph85%29.88 "Hg1 mi
8:00 AM3 °FOvercast.9 mph85%29.88 "Hg9 mi
7:00 AM5 °FLight snow. Overcast.14 mph85%29.85 "Hg4 mi
6:00 AM7 °FLight snow. Overcast.13 mph78%29.82 "Hg7 mi
5:47 AM7 °FLight snow. Overcast.15 mph78%29.81 "Hg9 mi
5:00 AM10 °FLight snow. Overcast.17 mph85%29.78 "Hg1 mi
4:54 AM12 °FLight snow. Low clouds.21 mph85%29.78 "Hg1 mi
4:00 AM14 °FMostly cloudy.3 mph67%29.76 "Hg9 mi
3:00 AM9 °FPassing clouds.2 mph78%29.77 "Hg9 mi
2:00 AM9 °FOvercast.2 mph78%29.78 "Hg9 mi
1:00 AM10 °FPassing clouds.5 mph72%29.79 "Hg9 mi
12:00 AM12 °FOvercast.3 mph67%29.80 "Hg9 mi
11:00 PM
Fri, Feb 12
14 °FMostly cloudy.5 mph62%29.81 "Hg9 mi
10:01 PM10 °FMostly cloudy.2 mph72%29.83 "Hg9 mi
9:00 PM7 °FPassing clouds.6 mph72%29.85 "Hg9 mi
8:00 PM9 °FClear.8 mph72%29.87 "Hg9 mi
7:00 PM9 °FClear.8 mph66%29.89 "Hg9 mi
6:00 PM10 °FPassing clouds.7 mph67%29.90 "Hg9 mi
5:00 PM12 °FSunny.5 mph62%29.91 "Hg9 mi
4:00 PM16 °FSunny.7 mph53%29.93 "Hg9 mi
3:00 PM14 °FSunny.9 mph52%29.94 "Hg9 mi
2:00 PM12 °FPassing clouds.7 mph52%29.97 "Hg9 mi
1:00 PM9 °FSunny.8 mph56%30.00 "Hg9 mi
12:00 PM7 °FSunny.9 mph56%30.04 "Hg9 mi
11:00 AM3 °FSunny.6 mph60%30.07 "Hg9 mi
10:00 AM1 °FSunny.7 mph65%30.09 "Hg9 mi
Weather by CustomWeather, © 2016

See weather overviewHow to use our weather pages